Home   Weather   Sosnowiec   Past weeks

Flag for Poland Past Weather in Sosnowiec, Poland — Yesterday and Last 2 Weeks

Now
30 °F

Low clouds.


Feels Like: 19 °F
Forecast: 24 / 31 °F
Wind: 16 mph from West

Location: Katowice Airport

Current Time: Dec 6, 2016 at 11:25:32 am

Latest Report: Dec 6, 2016 at 11:00 am


Visibility: 4 mi

Pressure: 30.27 "Hg

Humidity: 86%

Dew Point: 27 °F

Location of SosnowiecLocation

Past Weather in Sosnowiec — Graph

°F

Sosnowiec Temperature Yesterday

Maximum temperature yesterday: 37 °F (at 1:00 pm)
Minimum temperature yesterday: 18 °F (at 1:30 am)
Average temperature yesterday: 27 °F

High & Low Weather Summary for the Past Weeks

 TemperatureHumidityPressure
High64 °F (Nov 21, 11:30 am)100% (Nov 24, 9:00 pm)30.45 "Hg (Nov 24, 9:00 pm)
Low18 °F (Dec 5, 1:30 am)41% (Dec 5, 2:00 pm)29.45 "Hg (Dec 2, 3:30 am)
Average36 °F85%30.10 "Hg
* Reported Nov 21 10:00 am — Dec 6 10:00 am, Sosnowiec, Weather by CustomWeather, © 2016

Note: Actual official high and low records may vary slightly from our data, if they occured in-between our weather recording intervals... More about our weather records

Advertising

Sosnowiec Weather History for the Previous 24 Hours

Scroll right to see more
 ConditionsComfort  
Time TempWeatherWind HumidityBarometerVisibility
10:00 am
Tue, Dec 6
28 °FSnow showers. Ice fog.14 mph93%30.30 "Hg2 mi
9:30 am28 °FHeavy snow. Ice fog.13 mph86%30.30 "Hg1 mi
9:00 am28 °FLight snow. Ice fog.14 mph86%30.27 "Hg3 mi
8:30 am27 °FSnow. Ice fog.15 mph93%30.27 "Hg1 mi
8:00 am27 °FLight snow. Ice fog.16 mph93%30.24 "Hg2 mi
7:30 am27 °FLight snow. Ice fog.15 mph86%30.24 "Hg3 mi
7:00 am27 °FLight snow. Partly cloudy.14 mph86%30.24 "Hg4 mi
6:30 am28 °FOvercast.14 mph80%30.24 "Hg4 mi
6:00 am27 °FLight snow. Passing clouds.14 mph86%30.24 "Hg4 mi
5:30 am27 °FPartly cloudy.10 mph86%30.24 "Hg4 mi
5:00 am25 °FClear.9 mph93%30.24 "Hg4 mi
4:30 am25 °FIce fog.9 mph93%30.24 "Hg3 mi
4:00 am25 °FIce fog.8 mph93%30.24 "Hg3 mi
3:30 am27 °FIce fog.9 mph86%30.24 "Hg3 mi
3:00 am27 °FIce fog.10 mph93%30.24 "Hg3 mi
2:30 am27 °FIce fog.9 mph93%30.24 "Hg3 mi
2:00 am27 °FIce fog.10 mph93%30.24 "Hg3 mi
1:30 am27 °FIce fog.8 mph93%30.24 "Hg3 mi
1:00 am27 °FIce fog.9 mph93%30.24 "Hg3 mi
12:30 am27 °FIce fog.9 mph93%30.24 "Hg3 mi
12:00 am27 °FIce fog.9 mph93%30.24 "Hg3 mi
11:30 pm
Mon, Dec 5
27 °FIce fog.9 mph93%30.24 "Hg3 mi
11:00 pm28 °FIce fog.12 mph86%30.24 "Hg3 mi
10:30 pm27 °FIce fog.10 mph93%30.24 "Hg3 mi
10:00 pm28 °FIce fog.12 mph86%30.27 "Hg3 mi
9:30 pm28 °FClear.13 mph86%30.27 "Hg4 mi
9:00 pm28 °FClear.14 mph86%30.24 "Hg4 mi
8:30 pm28 °FClear.13 mph86%30.24 "Hg4 mi
8:00 pm28 °FClear.14 mph80%30.24 "Hg5 mi
7:30 pm28 °FClear.10 mph80%30.27 "Hg10 mi
7:00 pm30 °FClear.14 mph75%30.27 "Hg10 mi
6:30 pm30 °FClear.15 mph75%30.27 "Hg10 mi
6:00 pm28 °FClear.8 mph69%30.27 "Hg10 mi
5:30 pm30 °FClear.9 mph69%30.27 "Hg10 mi
5:00 pm32 °FClear.12 mph60%30.27 "Hg10 mi
4:30 pm32 °FClear.12 mph60%30.27 "Hg10 mi
4:00 pm34 °FClear.13 mph51%30.27 "Hg10 mi
3:30 pm36 °FSunny.15 mph48%30.27 "Hg10 mi
3:00 pm36 °FSunny.15 mph48%30.30 "Hg10 mi
2:30 pm37 °FSunny.17 mph41%30.30 "Hg10 mi
2:00 pm37 °FSunny.13 mph41%30.30 "Hg10 mi
1:30 pm37 °FSunny.15 mph45%30.30 "Hg10 mi
1:00 pm37 °FSunny.13 mph45%30.33 "Hg10 mi
12:30 pm36 °FSunny.13 mph48%30.33 "Hg10 mi
12:00 pm36 °FSunny.13 mph48%30.33 "Hg10 mi
11:30 am34 °FSunny.12 mph51%30.36 "Hg10 mi
11:00 am34 °FClear.12 mph56%30.36 "Hg5 mi
Weather by CustomWeather, © 2016

See weather overviewHow to use our weather pages